User: anonymous   Login
Location: Pilipovskiye Korichintsy
(49.1833°N, 27.4667°E)
Time: 13:41:31
(UTC+00:00)
Language:

Meteor 1-28 Rocket - Orbit

View from above orbital plane
View from above orbital plane
View from above satellite
View from above satellite

Ground track
Ground track

The orbit data is extracted from the following two-line orbital elements,

1 10114U 77057B   20271.86413862 +.00000466 +00000-0 +26418-4 0  9994
2 10114 097.3218 057.4160 0015484 091.1395 269.1613 15.17532879365091
Epoch (UTC): 27 September 2020 20:44:21
Eccentricity: 0.0015484
inclination: 97.3218°
perigee height: 502 km
apogee height: 524 km
right ascension of ascending node: 57.4160°
argument of perigee: 91.1395°
revolutions per day: 15.17532879
mean anomaly at epoch: 269.1613°
orbit number at epoch: 36509

The dashed part of the orbit path shows where the satellite is in the earth's shadow,  

DLR